Location: Central Falls
(41.8900°N, 71.3929°W)
Time: 13:47:30
(UTC+00:00)

Vanguard 2 - All Passes

Search period start: 03 December 2023 00:00
Search period end: 13 December 2023 00:00
Orbit: 553 x 2922 km, 32.9° (Epoch: 02 December)

Date Brightness Start Highest point End Pass type
(mag) Time Alt. Az. Time Alt. Az. Time Alt. Az.
03 Dec - 01:10:29 10° SSW 01:25:14 35° SSE 01:36:45 10° E visible
03 Dec - 03:20:31 10° WSW 03:35:49 52° S 03:45:53 10° E visible
03 Dec - 05:32:56 10° W 05:45:36 50° SSW 05:53:21 10° ESE night (unlit)
03 Dec - 07:45:59 10° W 07:53:39 26° SSW 07:58:56 10° SSE visible
03 Dec - 23:19:08 10° S 23:30:17 20° SE 23:40:29 10° ESE visible
04 Dec - 01:25:05 10° SW 01:40:41 41° SSE 01:52:38 10° E visible
04 Dec - 03:35:56 10° WSW 03:51:22 55° S 04:01:25 10° ESE visible
04 Dec - 05:48:39 10° W 06:01:01 47° SSW 06:08:40 10° SE night (unlit)
04 Dec - 08:02:12 10° W 08:08:42 20° SW 08:13:29 10° S visible
04 Dec - 23:32:27 10° SSW 23:45:32 26° SE 23:57:20 10° E visible
05 Dec - 01:39:58 10° SW 01:56:11 47° SSE 02:08:23 10° E visible
05 Dec - 03:51:27 10° WSW 04:06:55 57° S 04:16:55 10° ESE visible
05 Dec - 06:04:25 10° W 06:16:22 42° SSW 06:23:52 10° SE night (unlit)
05 Dec - 08:18:54 10° WSW 08:23:40 15° SW 08:27:29 10° SSW visible
05 Dec - 21:47:34 10° SE 21:51:03 11° SE 21:54:32 10° ESE visible
05 Dec - 23:46:22 10° SSW 00:00:48 32° SSE 00:13:41 10° E visible
06 Dec - 01:55:04 10° SW 02:11:42 52° SSE 02:24:02 10° E visible
06 Dec - 04:07:02 10° WSW 04:22:26 57° S 04:32:22 10° ESE visible
06 Dec - 06:20:15 10° W 06:31:36 37° SSW 06:38:55 10° SE night (unlit)
06 Dec - 08:37:36 10° SW 08:38:32 10° SW 08:39:26 10° SW night (unlit)
06 Dec - 21:57:16 10° SSE 22:06:06 16° SE 22:14:58 10° ESE visible
07 Dec - 00:00:43 10° SSW 00:16:07 39° SSE 00:29:44 10° E visible
07 Dec - 02:10:20 10° WSW 02:27:14 56° S 02:39:38 10° E visible
07 Dec - 04:22:41 10° W 04:37:56 55° SSW 04:47:45 10° ESE visible
07 Dec - 06:36:11 10° W 06:46:45 31° SSW 06:53:47 10° SSE night (unlit)
07 Dec - 22:09:49 10° S 22:21:09 22° SE 22:32:35 10° E visible
08 Dec - 00:15:23 10° SW 00:31:29 45° SSE 00:45:35 10° E visible
08 Dec - 02:25:44 10° WSW 02:42:47 59° S 02:55:10 10° E visible
08 Dec - 04:38:23 10° W 04:53:20 52° SSW 05:03:02 10° SE visible
08 Dec - 06:52:19 10° W 07:01:45 25° SW 07:08:23 10° SSE night (unlit)
08 Dec - 22:23:19 10° SSW 22:36:14 28° SE 22:49:20 10° E visible
09 Dec - 00:30:17 10° SW 00:46:54 50° SSE 01:01:18 10° E visible
09 Dec - 02:41:14 10° WSW 02:58:19 60° S 03:10:39 10° ESE visible
09 Dec - 04:54:07 10° W 05:08:40 47° SSW 05:18:13 10° SE visible
09 Dec - 07:08:46 10° W 07:16:40 20° SW 07:22:35 10° S night (unlit)
09 Dec - 20:38:57 10° SE 20:42:11 11° SE 20:45:30 10° ESE daylight
09 Dec - 22:37:22 10° SSW 22:51:21 34° SE 23:05:38 10° E visible
10 Dec - 00:45:24 10° SW 01:02:21 55° SSE 01:16:56 10° E visible
10 Dec - 02:56:48 10° W 03:13:50 60° S 03:26:06 10° ESE visible
10 Dec - 05:09:55 10° W 05:23:54 42° SSW 05:33:15 10° SE visible
10 Dec - 07:25:53 10° WSW 07:31:28 15° SW 07:36:03 10° SSW night (unlit)
10 Dec - 20:48:53 10° SSE 20:57:03 16° SE 21:05:53 10° ESE daylight
10 Dec - 22:51:47 10° SSW 23:06:32 40° SSE 23:21:39 10° E visible
11 Dec - 01:00:39 10° WSW 01:17:50 59° S 01:32:32 10° E visible
11 Dec - 03:12:25 10° W 03:29:19 58° S 03:41:28 10° ESE visible
11 Dec - 05:25:49 10° W 05:39:01 36° SSW 05:48:06 10° SSE night (unlit)
11 Dec - 21:01:34 10° S 21:11:55 22° SE 21:23:28 10° E daylight
11 Dec - 23:06:30 10° SW 23:21:47 46° SSE 23:37:29 10° E visible
12 Dec - 01:16:02 10° WSW 01:33:21 61° S 01:48:04 10° E visible
12 Dec - 03:28:04 10° W 03:44:44 55° SSW 03:56:44 10° ESE visible
12 Dec - 05:41:52 10° W 05:54:01 30° SW 06:02:41 10° SSE night (unlit)
12 Dec - 21:15:10 10° S 21:26:51 28° SE 21:40:12 10° E daylight
12 Dec - 23:21:25 10° SW 23:37:07 51° SSE 23:53:12 10° E visible
